Location: Sawyer Lake
(45.2517°N, 88.7550°W)
Time: 11:42:47
(UTC-05:00)

Daily predictions for brighter satellites

Satellite Brightness Start Highest point End
(mag) Time Altitude Azimuth Time Altitude Azimuth Time Altitude Azimuth
Cosmos 1943 Rocket 2.9 20:53:38 10° NW 20:59:06 54° WSW 21:04:30 10° S
CENTAUR R/B 3.2 20:52:10 10° NW 21:00:02 84° NE 21:08:29 10° SE
Cosmos 773 Rocket 3.9 20:56:12 10° S 21:01:19 70° ESE 21:06:27 10° NNE
Cosmos 1500 3.8 20:58:57 10° NNW 21:02:41 57° W 21:06:22 10° S
SAR-Lupe-1 4.1 21:00:13 10° SSE 21:03:48 81° ENE 21:07:24 10° NNW
USA 81 4.1 20:59:22 10° S 21:04:37 71° E 21:09:53 10° N
Cosmos 1441 Rocket 4.5 21:02:29 10° SE 21:05:27 23° E 21:08:25 10° NE
NOSS 3-4 (A) 4.4 21:00:45 10° WSW 21:06:57 56° NW 21:13:26 10° NNE
NOSS 3-4 (C) 4.4 21:00:51 10° SW 21:07:03 56° NW 21:13:33 10° NNE
Meteor 1-13 Rocket 4.5 21:01:32 10° S 21:07:21 58° E 21:13:07 10° NNE
PSLV R/B 3.7 21:04:25 10° WSW 21:07:21 37° S 21:10:17 10° ESE
Helios 1B rocket 2.5 21:05:49 10° NNE 21:09:58 89° ESE 21:14:06 10° SSW
Cosmos 292 Rocket 4.1 21:07:32 10° SSW 21:12:21 75° WNW 21:17:12 10° NNE
Cosmos 1455 Rocket 3.7 21:09:37 10° NNW 21:13:56 57° W 21:18:10 10° S
Cosmos 1939 Rocket 3.1 21:10:05 10° S 21:13:56 69° W 21:17:48 10° NNW
NOSS 2-2 (C) 3.5 21:10:28 10° SSW 21:14:24 56° ESE 21:18:56 10° NE
COSMOS 2455 3.6 21:09:11 10° NW 21:14:58 50° WSW 21:20:44 10° S
Cosmos 374 Rocket 4.2 21:12:45 10° NW 21:16:35 84° SW 21:20:28 10° SE
COSMOS 2406 3.4 21:11:22 10° S 21:16:54 53° ESE 21:22:27 10° NE
ARGOS 3.9 21:13:49 10° SE 21:18:49 40° ENE 21:23:50 10° N
SL-27 R/B 3.6 21:15:45 10° SSE 21:18:52 27° ESE 21:22:00 10° NE
Cosmos 1680 Rocket 3.6 21:19:04 10° S 21:24:08 54° ESE 21:29:14 10° NNE
SPOT 5 3.3 21:23:04 11° SE 21:26:51 38° ENE 21:30:54 10° N
Cosmos 1346 2.8 21:24:36 10° S 21:27:20 66° E 21:30:05 10° NNE
Cosmos 1743 3.0 21:23:54 10° NNW 21:27:47 72° W 21:31:39 10° S
H-2A R/B 4.2 21:25:33 10° E 21:28:07 15° ENE 21:30:41 10° NNE
Cosmos 405 3.4 21:28:38 10° N 21:32:07 47° ENE 21:34:56 14° SSE
Envisat 4.3 21:32:31 10° SSW 21:37:14 38° W 21:41:59 10° NNW
Terra 3.5 21:37:12 11° ESE 21:40:27 21° ENE 21:43:57 10° NNE
ASTEX 1 3.4 21:37:17 10° S 21:42:13 87° W 21:47:09 10° N
Tiangong 2 2.3 21:42:17 10° SSW 21:44:50 22° SSE 21:45:36 20° SE
MetOp-B 4.1 21:40:01 11° SSE 21:45:09 81° ENE 21:50:32 10° NNW
Cosmos 1437 Rocket 3.2 21:43:18 10° N 21:46:58 43° ENE 21:49:25 19° SE
CRYOSAT 2 4.4 21:43:26 10° S 21:48:17 85° W 21:53:10 10° N
SPOT 1/Viking Rocket 3.9 21:44:16 15° SE 21:48:18 50° ENE 21:53:18 10° N
Aureole 3 Rocket 3.9 21:44:18 10° SSW 21:50:53 72° W 21:55:33 10° N
Okean 1-7 Rocket 3.6 21:46:45 10° S 21:51:10 72° E 21:55:40 10° NNE
Cosmos 1697 Rocket 4.3 21:47:37 10° N 21:52:01 23° NE 21:56:22 10° E
Okean 2 3.6 21:50:04 15° SSE 21:53:15 49° E 21:57:12 10° NNE
Meteor 2-9 Rocket 4.3 21:49:00 10° NNW 21:54:28 80° W 21:59:47 11° S
Cosmos 1238 Rocket 4.1 21:48:27 10° S 21:55:11 85° E 22:01:46 10° N
Aureole 1 Rocket 2.1 21:53:18 10° SSW 21:56:39 87° WNW 21:59:39 10° NNE
ISS -3.2 21:54:36 10° SSW 21:57:35 32° SE 22:00:35 10° ENE
Cosmos 1666 3.6 21:54:36 10° NNW 21:58:12 44° W 22:01:46 10° SSW
DNEPR-1 R/B 4.1 21:57:20 10° NW 22:01:27 50° WSW 22:04:38 18° S
Meteor 2-4 Rocket 3.9 21:57:58 10° SSW 22:03:35 76° WNW 22:09:25 10° N
Cosmos 1892 Rocket 4.1 22:01:37 20° SSE 22:04:15 42° E 22:08:26 10° NNE
Cosmos 1371 Rocket 4.0 21:59:01 10° NNW 22:04:24 84° ENE 22:08:06 20° SSE
Cosmos 2228 3.9 22:00:52 10° N 22:04:50 34° ENE 22:06:54 22° ESE
DEBRIS 4.3 22:03:22 10° WSW 22:07:25 86° SSE 22:23:25 10° ENE
OAO 2 Rocket 4.4 22:04:36 10° SW 22:08:38 25° S 22:10:00 22° SSE
Cosmos 921 Rocket 3.5 22:06:09 10° N 22:10:32 48° ENE 22:12:53 24° SE
Cosmos 1656 4.5 22:07:47 10° NNW 22:12:52 39° NE 22:16:17 19° ESE
Cosmos 1833 Rocket 3.9 22:11:23 20° ESE 22:12:54 22° E 22:17:09 10° NE
Lacrosse 5 rocket 4.3 22:12:33 10° NW 22:15:49 19° N 22:19:08 10° NE
Cosmos 1606 Rocket 3.4 22:11:52 10° N 22:16:13 88° E 22:18:50 24° S
TELKOM 3 4.0 22:14:44 10° WNW 22:17:05 52° NNE 22:18:42 23° E
USA 245 2.9 22:16:10 28° SSW 22:17:17 49° WSW 22:19:40 10° NNW
Cosmos 2181 Rocket 4.1 22:13:08 17° SSE 22:18:05 61° E 22:24:18 10° NNE
SL-24 DEB 4.2 22:21:38 21° S 22:24:40 85° W 22:29:20 10° N
OE (NEXTSAT) 4.3 22:21:15 10° W 22:24:49 75° SSW 22:26:10 35° ESE
ERS-1 Rocket 4.5 22:22:09 10° SSW 22:26:34 31° W 22:31:01 10° NW
Cosmos 1726 Rocket 3.5 22:22:49 10° N 22:27:10 85° W 22:29:29 27° S
Meteor 1-4 Rocket 3.5 22:26:13 10° N 22:29:32 32° ENE 22:30:20 29° E
Cosmos 1515 3.6 22:28:01 28° S 22:29:57 84° E 22:33:47 10° N
USA 267 4.0 22:26:50 10° ENE 22:32:19 28° SE 22:34:02 25° SSE
Cosmos 2058 Rocket 3.0 22:29:22 10° N 22:33:48 83° E 22:35:51 32° SSE
PSLV R/B 4.0 22:35:54 32° ENE 22:35:54 32° ENE 22:38:27 10° N
Cosmos 1295 Rocket 4.5 22:29:57 10° N 22:36:09 89° W 22:40:10 24° S
H-2A R/B 2.1 22:33:29 24° S 22:36:27 71° WSW 22:41:29 10° NNW
CARTOSAT-1 3.6 22:36:38 34° SE 22:38:23 67° ENE 22:42:41 10° N
Cosmos 1980 Rocket 3.5 22:34:06 10° N 22:39:04 30° NE 22:42:26 17° ESE
Cosmos 1025 Rocket 4.3 22:36:02 10° SW 22:40:01 38° WNW 22:44:02 10° N
DMSP B5D2-2 4.0 22:39:08 10° NNE 22:44:27 76° ESE 22:47:34 25° S
Cosmos 2322 Rocket 4.4 22:43:29 10° N 22:46:56 16° NE 22:50:22 10° E
SeaSat 1 4.2 22:46:39 13° E 22:49:46 23° NE 22:53:37 10° N
Meteor 1-22 Rocket 4.2 22:50:25 10° N 22:55:40 62° ENE 22:57:47 36° SE
USA 229 DEB 4.5 22:50:12 10° NNW 22:57:04 48° NE 23:02:12 19° ESE
USA 229 4.5 22:50:18 10° NNW 22:57:10 48° NE 23:02:19 18° ESE
CZ-4C R/B 3.7 23:01:55 40° E 23:02:14 41° ENE 23:05:37 10° N
Cosmos 1812 Rocket 4.0 22:57:54 10° N 23:02:18 51° ENE 23:03:22 41° ESE
Landsat 7 4.4 23:00:33 28° SSW 23:02:47 51° W 23:07:26 10° NNW
H-2A R/B 2.3 23:01:56 39° S 23:03:34 70° WSW 23:08:07 10° NNW
SL-8 Rocket 4.1 22:58:02 10° NNW 23:04:16 73° W 23:07:42 28° S
Cosmos 2278 4.0 23:02:39 10° NNW 23:08:16 59° WSW 23:10:40 33° S
Cosmos 2366 rocket 3.9 23:02:09 10° N 23:08:22 90° W 23:11:14 34° S
USA 234 4.3 23:02:36 10° E 23:08:40 42° NNE 23:14:42 10° NW
Cosmos 1544 4.0 23:07:45 10° N 23:11:05 33° ENE 23:11:09 33° ENE
Meteor 2-21 4.4 23:06:21 10° N 23:12:26 83° W 23:15:11 35° S
Cosmos 2082 Rocket 2.1 23:09:50 32° S 23:12:32 72° ESE 23:18:12 10° NNE
Cosmos 389 Rocket 4.4 23:10:41 10° NNE 23:13:14 19° ENE 23:13:15 19° ENE
Meteor 2-21 Rocket 4.3 23:09:14 10° N 23:15:19 85° E 23:17:51 38° SSE
Cosmos 1626 Rocket 3.4 23:14:23 51° S 23:15:26 86° E 23:19:47 10° N
CZ-4B R/B 3.4 23:12:23 10° NNE 23:17:25 72° ESE 23:19:06 43° S
Terra 2.3 23:16:04 34° SSW 23:17:50 51° W 23:22:29 10° NNW
COSMOS 2487 3.2 23:21:12 37° WSW 23:22:12 49° WNW 23:25:42 10° N
ALOS 2 4.2 23:21:11 21° E 23:22:19 23° ENE 23:25:46 10° NNE
CZ-2C R/B 3.9 23:20:54 10° NE 23:25:33 26° E 23:26:18 25° ESE
Spot 4 3.8 23:24:26 49° S 23:25:44 80° WSW 23:30:34 10° NNW
Cosmos 2369 4.5 23:21:25 10° NW 23:26:48 43° WSW 23:28:55 31° SSW
Cosmos 1420 Rocket 3.9 23:23:15 10° NNW 23:28:34 86° WSW 23:30:03 49° SSE
Cosmos 1825 Rocket 4.2 23:28:45 38° E 23:28:50 38° E 23:32:51 10° NNE
Cosmos 1842 3.4 23:29:04 57° E 23:29:04 57° E 23:32:52 10° NNE
Timation 2 Rocket 4.0 23:27:45 39° S 23:30:00 60° ESE 23:36:04 10° NE
Cosmos 1953 3.1 23:26:51 10° N 23:30:41 38° ENE 23:30:57 38° E
ISS -2.8 23:30:49 10° W 23:34:01 46° NNW 23:37:13 10° NE
Cosmos 1048 Rocket 4.0 23:33:31 51° SSE 23:34:26 60° ESE 23:39:32 10° NNE
Cosmos 1697 Rocket 2.7 23:30:55 10° NNW 23:36:31 69° WSW 23:38:08 46° S
SL-16 R/B 3.5 23:31:58 10° N 23:37:00 31° NE 23:39:58 20° E
Cosmos 1452 Rocket 4.1 23:34:24 10° NNW 23:39:26 46° WSW 23:40:54 37° SSW
DELTA 2 DEB (DPAF) 4.3 23:39:21 52° SSW 23:40:11 63° WSW 23:44:39 10° NNW
Iridium 2 3.6 23:36:28 10° N 23:40:16 77° W 23:40:20 77° WSW
Cosmos 1271 Rocket 2.6 23:36:51 10° N 23:40:44 87° W 23:40:49 85° SSW
Cosmos 1602 Rocket 4.4 23:47:44 33° WSW 23:49:02 43° WNW 23:53:12 10° N
ATLAS CENTAUR R/B 3.2 23:51:20 10° N 23:54:13 21° NE 23:55:28 18° ENE
